GW0756 Weather Reports


time (UTC)temp
F
wind
direction
speed
knots
gust
knots
rain 1hr
in
rain 24hr
in
rain mn
in
humidity
%
barometer
mb
20260510204513 65 250 0.9 0.9 0.00 0.00 0.00 42 1022.7
20260510204009 66 250 0.0 0.0 0.00 0.00 0.00 44 1022.8
20260510203507 65 250 0.0 0.9 0.00 0.00 0.00 44 1022.9
20260510203002 65 250 0.9 1.7 0.00 0.00 0.00 47 1022.8
20260510202457 65 250 0.9 1.7 0.00 0.00 0.00 44 1022.9
20260510201953 66 250 0.0 0.0 0.00 0.00 0.00 39 1022.9
20260510201450 65 250 0.9 2.6 0.00 0.00 0.00 41 1022.9
20260510200947 65 250 0.0 0.0 0.00 0.00 0.00 43 1022.8
20260510200442 65 250 1.7 2.6 0.00 0.00 0.00 39 1023.2
20260510195936 66 250 0.9 1.7 0.00 0.00 0.00 39 1023.0
20260510195433 66 250 0.0 0.9 0.00 0.00 0.00 47 1023.1
20260510194928 65 250 0.0 0.0 0.00 0.00 0.00 43 1023.3
20260510194425 65 250 0.0 0.0 0.00 0.00 0.00 43 1022.8
20260510193920 66 250 0.9 2.6 0.00 0.00 0.00 41 1023.1
20260510193416 66 250 0.9 1.7 0.00 0.00 0.00 42 1022.9
20260510192912 66 250 0.9 2.6 0.00 0.00 0.00 47 1022.9
20260510192407 66 250 0.0 0.9 0.00 0.00 0.00 47 1022.9
20260510191903 66 250 1.7 2.6 0.00 0.00 0.00 46 1023.0
20260510191358 66 250 0.0 0.0 0.00 0.00 0.00 48 1022.7
20260510190856 65 250 0.0 0.0 0.00 0.00 0.00 49 1023.1
20260510190354 65 250 0.0 0.9 0.00 0.00 0.00 44 1023.0
20260510185850 65 250 0.9 0.9 0.00 0.00 0.00 48 1023.2
20260510185348 65 250 0.0 0.0 0.00 0.00 0.00 49 1023.2
20260510184845 64 250 0.0 0.0 0.00 0.00 0.00 46 1022.9
20260510184342 65 250 0.9 4.3 0.00 0.00 0.00 48 1022.9
20260510183841 65 250 1.7 2.6 0.00 0.00 0.00 43 1022.8
20260510183337 65 250 0.9 1.7 0.00 0.00 0.00 42 1023.2
20260510182833 66 250 0.0 1.7 0.00 0.00 0.00 43 1023.1
20260510182330 65 250 0.0 0.0 0.00 0.00 0.00 48 1023.2
20260510181825 66 250 0.9 1.7 0.00 0.00 0.00 45 1023.0
20260510181323 65 250 0.0 0.0 0.00 0.00 0.00 48 1023.2
20260510180819 66 250 0.0 1.7 0.00 0.00 0.00 45 1023.1
20260510180317 66 250 0.0 0.0 0.00 0.00 0.00 42 1023.1
20260510175813 66 250 0.9 0.9 0.00 0.00 0.00 42 1023.3
20260510175309 65 250 0.0 0.0 0.00 0.00 0.00 45 1023.1
20260510174806 64 250 0.0 0.0 0.00 0.00 0.00 46 1023.1
20260510174303 63 250 1.7 1.7 0.00 0.00 0.00 42 1023.1
20260510173800 63 250 0.0 0.9 0.00 0.00 0.00 44 1023.1
20260510173255 64 250 0.0 0.0 0.00 0.00 0.00 47 1023.1
20260510172751 64 250 0.9 0.9 0.00 0.00 0.00 43 1023.0
20260510172247 64 250 0.9 1.7 0.00 0.00 0.00 44 1022.9
20260510171744 63 250 0.0 0.0 0.00 0.00 0.00 47 1023.0
20260510171241 63 250 0.0 0.9 0.00 0.00 0.00 46 1023.1
20260510170739 64 250 0.0 0.0 0.00 0.00 0.00 40 1023.1
20260510170234 65 250 0.0 0.0 0.00 0.00 0.00 41 1023.2
20260510165730 66 250 1.7 1.7 0.00 0.00 0.00 40 1023.1
20260510165226 66 250 0.0 0.0 0.00 0.00 0.00 43 1023.2
20260510164724 66 250 0.0 0.0 0.00 0.00 0.00 40 1023.2
20260510164221 65 250 2.6 2.6 0.00 0.00 0.00 42 1023.0
20260510163716 64 250 3.5 7.0 0.00 0.00 0.00 42 1023.1
20260510163212 64 250 0.0 0.0 0.00 0.00 0.00 48 1023.0
20260510162711 63 250 0.0 0.0 0.00 0.00 0.00 44 1023.1
20260510162209 64 250 1.7 2.6 0.00 0.00 0.00 40 1022.9
20260510161705 63 250 0.0 0.9 0.00 0.00 0.00 46 1022.5
20260510161201 64 250 1.7 2.6 0.00 0.00 0.00 44 1022.5
20260510160658 64 250 0.9 2.6 0.00 0.00 0.00 43 1022.4
20260510160154 62 250 0.9 0.9 0.00 0.00 0.00 46 1022.3
20260510155650 62 250 0.0 0.9 0.00 0.00 0.00 46 1022.5
20260510155145 61 250 0.9 0.9 0.00 0.00 0.00 45 1022.5
20260510154641 61 250 0.0 0.0 0.00 0.00 0.00 46 1022.4
20260510154137 61 250 0.0 0.9 0.00 0.00 0.00 49 1022.4
20260510153638 61 250 0.9 1.7 0.00 0.00 0.00 43 1022.1
20260510153135 61 250 1.7 2.6 0.00 0.00 0.00 41 1022.4
20260510152631 61 250 0.0 0.9 0.00 0.00 0.00 47 1022.2
20260510152127 60 250 0.9 0.9 0.00 0.00 0.00 45 1022.2
20260510151624 61 250 0.9 1.7 0.00 0.00 0.00 44 1022.2
20260510151122 61 250 0.0 0.0 0.00 0.00 0.00 47 1021.9
20260510150622 61 250 0.0 0.0 0.00 0.00 0.00 46 1022.0
20260510150118 60 250 0.0 0.9 0.00 0.00 0.00 46 1021.9
20260510145615 60 250 0.0 0.0 0.00 0.00 0.00 47 1022.1
20260510145111 60 250 0.0 0.0 0.00 0.00 0.00 46 1022.2
20260510144607 60 250 0.0 0.0 0.00 0.00 0.00 52 1022.5
20260510144104 59 250 0.0 0.0 0.00 0.00 0.00 51 1022.4
20260510143559 60 250 0.9 1.7 0.00 0.00 0.00 50 1022.4
20260510143056 59 250 0.0 0.0 0.00 0.00 0.00 53 1022.3
20260510142553 59 250 0.0 0.0 0.00 0.00 0.00 48 1022.5
20260510142049 59 250 0.9 1.7 0.00 0.00 0.00 47 1022.3
20260510141546 59 250 0.0 0.0 0.00 0.00 0.00 52 1022.4
20260510141044 58 250 0.0 0.9 0.00 0.00 0.00 49 1022.3
20260510140540 58 250 0.0 0.0 0.00 0.00 0.00 53 1022.6
20260510140039 58 250 0.0 0.0 0.00 0.00 0.00 55 1022.2
20260510135535 59 250 0.0 0.0 0.00 0.00 0.00 50 1022.4
20260510135032 58 250 0.0 0.0 0.00 0.00 0.00 50 1022.5
20260510134529 58 250 0.0 0.0 0.00 0.00 0.00 50 1022.5
20260510134026 58 250 0.0 0.0 0.00 0.00 0.00 52 1022.3
20260510133521 58 250 0.0 0.9 0.00 0.00 0.00 49 1022.0
20260510133018 58 250 0.0 0.0 0.00 0.00 0.00 48 1021.5
20260510132515 59 250 0.0 0.0 0.00 0.00 0.00 49 1021.4
20260510132012 59 250 0.0 0.0 0.00 0.00 0.00 50 1021.3
20260510131509 59 250 0.0 0.9 0.00 0.00 0.00 46 1021.0
20260510131006 58 250 0.0 0.9 0.00 0.00 0.00 50 1021.1
20260510130502 58 250 0.0 0.0 0.00 0.00 0.00 51 1021.0
20260510130000 58 250 0.0 0.0 0.00 0.00 0.00 53 1021.0
20260510125456 58 250 0.0 0.9 0.00 0.00 0.00 52 1020.6
20260510124953 58 250 0.9 1.7 0.00 0.00 0.00 52 1020.5
20260510124449 58 250 0.9 0.9 0.00 0.00 0.00 54 1020.8
20260510123946 58 250 0.0 0.0 0.00 0.00 0.00 56 1020.3
20260510123442 57 250 0.0 0.0 0.00 0.00 0.00 54 1020.6
20260510122938 57 250 0.9 0.9 0.00 0.00 0.00 54 1020.0
20260510122433 57 250 0.0 0.0 0.00 0.00 0.00 56 1019.9
20260510121929 57 250 0.9 1.7 0.00 0.00 0.00 55 1020.1
20260510121427 56 250 0.0 0.0 0.00 0.00 0.00 56 1020.0
20260510120925 56 250 0.0 0.0 0.00 0.00 0.00 56 1019.9
20260510120422 56 250 0.0 0.0 0.00 0.00 0.00 58 1019.9
20260510115917 56 250 0.0 0.0 0.00 0.00 0.00 57 1019.5
20260510115414 56 250 0.0 0.0 0.00 0.00 0.00 59 1019.4
20260510114910 56 250 0.0 0.0 0.00 0.00 0.00 58 1019.1
20260510114408 56 250 0.0 0.9 0.00 0.00 0.00 58 1019.0
20260510113903 56 250 0.0 0.0 0.00 0.00 0.00 58 1019.3
20260510113359 57 250 0.0 0.0 0.00 0.00 0.00 57 1019.3
20260510112856 56 250 0.0 0.0 0.00 0.00 0.00 55 1019.1
20260510112353 57 250 0.0 0.0 0.00 0.00 0.00 56 1019.1
20260510111849 57 250 0.0 0.0 0.00 0.00 0.00 56 1019.2
20260510111345 57 250 0.0 0.0 0.00 0.00 0.00 56 1019.2
20260510110840 57 250 0.0 0.0 0.00 0.00 0.00 56 1019.1
20260510110338 57 250 0.0 0.9 0.00 0.00 0.00 56 1019.1
20260510105834 58 250 0.0 0.0 0.00 0.00 0.00 57 1019.1
20260510105333 58 250 0.0 0.9 0.00 0.00 0.00 57 1018.5
20260510104830 58 250 0.0 0.0 0.00 0.00 0.00 58 1018.6
20260510104327 58 250 0.0 0.0 0.00 0.00 0.00 58 1018.5
20260510103823 58 250 0.0 0.0 0.00 0.00 0.00 60 1018.7
20260510103320 58 250 0.0 0.0 0.00 0.00 0.00 61 1018.6
20260510102815 58 250 0.0 0.0 0.00 0.00 0.00 61 1018.3
20260510102312 58 250 0.0 0.0 0.00 0.00 0.00 63 1018.1
20260510101809 58 250 1.7 1.7 0.00 0.00 0.00 63 1018.0
20260510101307 59 250 0.0 0.0 0.00 0.00 0.00 63 1017.9
20260510100803 59 250 0.0 0.0 0.00 0.00 0.00 61 1017.9
20260510100301 59 250 0.0 0.0 0.00 0.00 0.00 59 1017.9
20260510095756 60 250 0.0 0.9 0.00 0.00 0.00 58 1018.0
20260510095252 59 250 1.7 1.7 0.00 0.00 0.00 59 1017.6
20260510094751 60 250 2.6 2.6 0.00 0.00 0.00 61 1017.8
20260510094246 60 250 0.9 0.9 0.00 0.00 0.00 63 1017.6
20260510093742 59 250 0.9 1.7 0.00 0.00 0.00 66 1017.3
20260510093239 60 250 0.0 0.0 0.00 0.00 0.00 66 1017.3
20260510092735 60 250 0.0 0.9 0.00 0.00 0.00 67 1017.4
20260510092231 60 250 0.0 0.0 0.00 0.00 0.00 68 1017.3
20260510091727 60 250 0.9 2.6 0.00 0.00 0.00 68 1017.3
20260510091224 60 250 0.0 0.0 0.00 0.00 0.00 69 1017.1
20260510090721 59 250 0.0 0.0 0.00 0.00 0.00 70 1017.1
20260510090218 60 250 0.0 0.0 0.00 0.00 0.00 70 1017.0
20260510085713 60 250 0.9 1.7 0.00 0.00 0.00 70 1016.7
20260510085208 60 250 0.0 0.0 0.00 0.00 0.00 69 1016.7
20260510084704 60 250 0.0 0.0 0.00 0.00 0.00 68 1016.8
20260510084201 60 250 0.0 0.0 0.00 0.00 0.00 68 1016.5
20260510083658 61 250 0.0 0.0 0.00 0.00 0.00 67 1016.7
20260510083155 61 250 0.0 0.0 0.00 0.00 0.00 66 1016.5
20260510082651 61 250 0.0 0.0 0.00 0.00 0.00 65 1016.6
20260510082146 61 250 0.0 0.0 0.00 0.00 0.00 66 1016.5
20260510081641 61 250 0.0 0.0 0.00 0.00 0.00 66 1016.5
20260510081138 61 250 0.0 0.0 0.00 0.00 0.00 66 1016.5
20260510080637 61 250 0.0 0.0 0.00 0.00 0.00 66 1016.6
20260510080134 61 250 0.9 0.9 0.00 0.00 0.00 69 1016.5
20260510075631 61 250 0.0 0.0 0.00 0.00 0.00 66 1016.4
20260510075128 61 250 0.0 0.0 0.00 0.00 0.00 68 1016.2
20260510074625 61 250 0.0 0.0 0.00 0.00 0.00 67 1016.3
20260510074120 61 250 0.0 0.9 0.00 0.00 0.00 66 1016.2
20260510073617 62 250 0.0 0.9 0.00 0.00 0.00 65 1016.1
20260510073114 63 250 0.0 0.0 0.00 0.00 0.00 62 1015.9
20260510072610 63 250 0.0 0.0 0.00 0.00 0.00 62 1016.0
20260510072106 63 250 0.0 0.0 0.00 0.00 0.00 61 1015.9
20260510071557 64 250 0.0 0.0 0.00 0.00 0.00 60 1015.7
20260510071055 64 250 0.0 0.0 0.00 0.00 0.00 60 1015.2
20260510070552 63 250 0.0 0.9 0.00 0.00 0.00 60 1015.4
20260510070049 64 250 0.0 0.0 0.00 0.00 0.00 60 1015.7
20260510065545 64 250 0.0 0.0 0.00 0.00 0.00 60 1015.7
20260510065041 64 250 0.0 0.0 0.00 0.00 0.00 60 1015.5
20260510064538 64 250 0.0 0.0 0.00 0.00 0.00 60 1015.5
20260510064034 64 250 0.0 0.0 0.00 0.00 0.00 61 1015.6
20260510063531 63 250 0.0 0.0 0.00 0.00 0.00 63 1015.6
20260510063029 63 250 0.0 0.0 0.00 0.00 0.00 63 1015.6
20260510062524 62 250 0.0 0.0 0.00 0.00 0.00 65 1015.5
20260510062019 63 250 0.0 0.0 0.00 0.00 0.00 68 1015.5
20260510061516 62 250 0.9 0.9 0.00 0.00 0.00 69 1015.5
20260510061013 62 250 0.0 0.9 0.00 0.00 0.00 72 1015.8
20260510060510 61 250 0.0 0.0 0.00 0.00 0.00 77 1015.5
20260510060006 58 250 0.0 0.0 0.00 0.00 0.00 85 1015.5
20260510055502 58 250 0.0 0.0 0.00 0.00 0.00 88 1015.4
20260510055000 58 250 0.0 0.0 0.00 0.00 0.00 88 1015.3
20260510054455 58 250 0.0 0.0 0.00 0.00 0.00 88 1015.3
20260510053950 59 250 0.0 0.0 0.00 0.00 0.00 88 1015.1
20260510053446 59 250 0.0 0.0 0.00 0.00 0.00 88 1015.0
20260510052942 59 250 0.0 0.0 0.00 0.00 0.00 87 1015.0
20260510052438 59 250 0.0 0.0 0.00 0.00 0.00 87 1014.8
20260510051935 59 250 0.0 0.0 0.00 0.00 0.00 86 1014.7
20260510051431 59 250 0.0 0.0 0.00 0.00 0.00 86 1014.7
20260510050927 59 250 0.0 0.0 0.00 0.00 0.00 85 1015.0
20260510050424 59 250 0.0 0.0 0.00 0.00 0.00 85 1014.9
20260510045922 60 250 0.0 0.0 0.00 0.01 0.01 84 1014.8
20260510045419 60 250 0.0 0.0 0.00 0.01 0.01 84 1014.8
20260510044915 60 250 0.0 0.0 0.00 0.01 0.01 84 1014.6
20260510044412 60 250 0.0 0.0 0.00 0.01 0.01 84 1014.6
20260510043909 60 250 0.0 0.0 0.00 0.01 0.01 84 1014.3
20260510043405 61 250 0.0 0.0 0.00 0.01 0.01 86 1014.3
20260510042903 61 250 0.0 0.0 0.00 0.01 0.01 86 1014.6
20260510042359 61 250 0.0 0.0 0.00 0.01 0.01 85 1014.5
20260510041855 61 250 0.0 0.0 0.00 0.01 0.01 85 1014.7
20260510041352 61 250 0.0 0.0 0.00 0.01 0.01 85 1014.7
20260510040850 62 250 0.0 0.0 0.00 0.01 0.01 84 1014.3
20260510040347 62 250 0.0 0.0 0.00 0.01 0.01 84 1014.4
20260510035842 62 250 0.0 0.0 0.00 0.01 0.01 83 1014.2
20260510035338 62 250 0.0 0.0 0.00 0.01 0.01 83 1014.1
20260510034833 62 250 0.0 0.0 0.00 0.01 0.01 82 1014.1
20260510034332 62 250 0.0 0.0 0.00 0.01 0.01 82 1014.1
20260510033828 62 250 0.0 0.0 0.00 0.01 0.01 81 1014.0
20260510033325 62 250 0.0 0.0 0.00 0.01 0.01 80 1014.0
20260510032821 62 250 0.0 0.0 0.00 0.01 0.01 78 1014.1
20260510032318 62 250 0.0 0.0 0.00 0.01 0.01 77 1014.1
20260510031813 62 250 0.0 0.0 0.00 0.01 0.01 76 1014.1
20260510031309 63 250 0.0 0.0 0.00 0.01 0.01 76 1014.1
20260510030803 63 250 0.0 0.0 0.00 0.01 0.01 74 1013.6
20260510030300 64 250 0.0 0.0 0.00 0.01 0.01 71 1013.8
20260510025758 65 250 0.0 0.0 0.00 0.01 0.01 68 1013.4
20260510025255 65 250 0.0 0.0 0.00 0.01 0.01 66 1013.1
20260510024751 65 250 0.0 0.0 0.00 0.01 0.01 66 1012.7
20260510024248 65 250 0.0 0.0 0.00 0.01 0.01 67 1012.8
20260510023744 66 250 0.0 0.0 0.00 0.01 0.01 66 1012.6
20260510023241 66 250 0.0 0.0 0.00 0.01 0.01 64 1012.7
20260510022737 67 250 0.0 0.0 0.00 0.01 0.01 62 1012.6
20260510022238 68 250 0.0 0.0 0.00 0.01 0.01 60 1012.2
20260510021732 69 250 0.0 0.0 0.00 0.01 0.01 57 1012.1
20260510021230 69 250 0.0 0.0 0.00 0.01 0.01 57 1012.1
20260510020731 70 250 0.0 0.0 0.00 0.01 0.01 55 1012.0
20260510020226 70 250 0.0 0.0 0.00 0.01 0.01 54 1011.6
20260510015722 71 250 0.0 0.0 0.00 0.01 0.01 52 1011.8
20260510015218 71 250 0.0 0.0 0.00 0.01 0.01 52 1011.7
20260510014713 72 250 0.0 0.0 0.00 0.01 0.01 53 1011.6
20260510014211 72 250 0.9 0.9 0.00 0.01 0.01 51 1011.3
20260510013712 72 250 0.0 0.0 0.00 0.01 0.01 52 1011.2
20260510013208 72 250 0.0 0.0 0.00 0.01 0.01 55 1011.0
20260510012702 73 250 0.0 0.0 0.00 0.01 0.01 56 1010.9
20260510012157 73 250 3.5 5.2 0.00 0.01 0.01 56 1011.1
20260510011652 68 250 0.9 1.7 0.00 0.01 0.01 67 1010.8
20260510011148 69 250 1.7 1.7 0.00 0.01 0.01 80 1010.5
20260510010644 69 250 0.0 0.0 0.00 0.01 0.01 80 1010.5
20260510010142 69 250 0.0 0.0 0.00 0.01 0.01 79 1010.4
20260510005637 71 250 0.0 0.0 0.00 0.01 0.01 79 1009.8
20260510005134 71 250 0.0 0.0 0.00 0.01 0.01 77 1010.2
20260510004633 72 250 0.0 0.0 0.00 0.01 0.01 75 1010.0
20260510004131 74 250 0.0 0.0 0.00 0.01 0.01 75 1009.9
20260510003628 74 250 0.0 0.0 0.00 0.01 0.01 74 1009.9
20260510003123 75 250 0.0 0.0 0.00 0.01 0.01 76 1010.0
20260510002618 76 250 0.0 0.0 0.00 0.01 0.01 75 1009.7
20260510002115 77 250 0.0 0.0 0.00 0.01 0.01 76 1009.8
20260510001612 76 250 0.0 0.0 0.00 0.01 0.01 77 1009.7
20260510001111 75 250 0.0 0.0 0.00 0.01 0.01 76 1009.8
20260510000611 75 250 0.0 0.0 0.00 0.01 0.01 77 1010.0
20260510000108 77 250 0.0 0.0 0.00 0.01 0.01 76 1009.7
20260509235604 78 250 0.0 0.0 0.00 0.01 0.01 73 1009.7
20260509235102 78 250 0.0 0.0 0.00 0.01 0.01 70 1009.7
20260509234557 77 250 0.0 0.0 0.00 0.01 0.01 66 1009.7
20260509234055 78 250 0.0 0.0 0.00 0.01 0.01 69 1009.5
20260509233553 79 250 0.0 0.0 0.00 0.01 0.01 66 1009.6
20260509233050 80 250 0.0 0.0 0.00 0.01 0.01 61 1009.6
20260509232546 80 250 0.0 0.0 0.00 0.01 0.01 54 1009.9
20260509232043 80 250 0.0 0.0 0.00 0.01 0.01 47 1009.7
20260509231539 80 250 0.0 0.0 0.00 0.01 0.01 44 1009.8
20260509231038 80 250 0.0 0.0 0.00 0.01 0.01 43 1009.9
20260509230534 81 250 0.0 0.0 0.00 0.01 0.01 42 1009.8
20260509230031 82 250 0.9 1.7 0.00 0.01 0.01 37 1009.8
20260509225526 83 250 0.9 0.9 0.00 0.01 0.01 36 1009.8
20260509225022 84 250 0.0 0.0 0.00 0.01 0.01 42 1009.5
20260509224518 81 250 0.0 0.0 0.00 0.01 0.01 44 1009.6
20260509224015 81 250 0.0 0.0 0.00 0.01 0.01 42 1009.5
20260509223512 80 250 0.0 0.0 0.00 0.01 0.01 42 1009.5
20260509223010 82 250 0.0 0.0 0.00 0.01 0.01 42 1009.6
20260509222505 83 250 0.0 0.0 0.00 0.01 0.01 42 1009.6
20260509222001 83 248 0.9 0.9 0.00 0.01 0.01 40 1009.3
20260509221457 81 250 0.9 0.9 0.00 0.01 0.01 40 1009.3
20260509220953 81 250 0.0 0.0 0.00 0.01 0.01 44 1009.8
20260509220449 81 250 0.0 0.0 0.00 0.01 0.01 43 1009.6
20260509215945 81 250 0.9 1.7 0.00 0.01 0.01 40 1009.5
20260509215441 81 250 2.6 2.6 0.00 0.01 0.01 35 1009.6
20260509214939 81 250 2.6 4.3 0.00 0.01 0.01 34 1009.6
20260509214436 81 248 2.6 2.6 0.00 0.01 0.01 39 1009.7
20260509213932 81 245 0.0 0.0 0.00 0.01 0.01 40 1009.7
20260509213428 81 242 0.0 0.9 0.00 0.01 0.01 37 1009.6
20260509212926 82 236 2.6 4.3 0.00 0.01 0.01 37 1009.6
20260509212423 82 226 1.7 2.6 0.00 0.01 0.01 36 1009.6
20260509211919 83 216 0.9 1.7 0.00 0.01 0.01 35 1009.5
20260509211415 84 202 0.9 1.7 0.00 0.01 0.01 32 1009.6
20260509210912 84 194 1.7 2.6 0.00 0.01 0.01 38 1009.7
20260509210409 83 190 3.5 4.3 0.00 0.01 0.01 35 1009.7
20260509205904 84 174 3.5 4.3 0.00 0.01 0.01 37 1009.7
20260509205404 84 171 0.9 1.7 0.00 0.01 0.01 38 1009.7
20260509204900 83 165 1.7 1.7 0.00 0.01 0.01 39 1009.6